This demonstration page uses our WeatherBlox Daily Observations layout. Learn more.

Left ArrowRight Arrow

Hourly Observations for October 28, 2021

Temp ( °F °C ) Dew Point ( °F °C ) Humidity (%) Winds ( mph kmh ) Pressure ( in mb ) Visibility ( mi km ) Precip ( " mm )
12:53 am 00:53 Clear 58 14.4 47 8.3 67 67 E 3 6 29.82 1010 10 16 0.00 0.00
1:53 am 01:53 Clear 58 14.4 47 8.3 67 67 Calm 29.81 1010 10 16 0.00 0.00
2:53 am 02:53 Mostly Clear 58 14.4 46 7.8 65 65 SE 3 6 29.82 1010 10 16 0.00 0.00
3:53 am 03:53 Cloudy with Light Rain 58 14.4 47 8.3 67 67 E 7 11 29.78 1009 10 16 0.00 0.00
4:53 am 04:53 Mostly Cloudy with Light Rain 56 13.3 48 8.9 75 75 E 8 13 29.73 1007 10 16 0.01 0.25
5:53 am 05:53 Mostly Cloudy 56 13.3 52 11.1 87 87 VRB 7 11 29.69 1005 10 16 0.02 0.51
6:29 am 06:29 Mostly Cloudy 57 13.9 51 10.6 81 81 ESE 10 17 29.71 1006 10 16 0.00 0.00
6:53 am 06:53 Cloudy with Light Rain 57 13.9 51 10.6 81 81 SE 13 20 29.72 1006 10 16 0.00 0.00
7:53 am 07:53 Mostly Cloudy 55 12.8 52 11.1 90 90 VRB 6 9 29.69 1005 10 16 0.05 1.27
8:53 am 08:53 Cloudy 56 13.3 53 11.7 90 90 ESE 10 17 29.65 1004 10 16 0.00 0.00
9:53 am 09:53 Cloudy with Light Rain 55 12.8 53 11.7 93 93 E 12 19 29.65 1004 6 10 0.02 0.51
10:53 am 10:53 Cloudy with Light Rain 55 12.8 53 11.7 93 93 E 10 17 29.62 1003 4 6 0.01 0.25
11:53 am 11:53 Cloudy with Light Rain 56 13.3 54 12.2 93 93 SE 8 13 29.62 1003 8 13 0.01 0.25
12:53 pm 12:53 Cloudy with Light Rain 57 13.9 55 12.8 93 93 E 8 13 29.60 1002 10 16 0.01 0.25
1:45 pm 13:45 Mostly Sunny 57 13.9 55 12.8 93 93 ESE 9 15 29.58 1002 10 16 0.00 0.00
1:53 pm 13:53 Mostly Sunny 57 13.9 55 12.8 93 93 E 8 13 29.56 1001 10 16 0.00 0.00
2:00 pm 14:00 Cloudy 57 13.9 55 12.8 93 93 E 10 17 29.57 1001 10 16 0.00 0.00
2:53 pm 14:53 Cloudy with Light Rain 57 13.9 56 13.3 96 96 NNW 5 7 29.56 1001 9 14 0.00 0.00
3:53 pm 15:53 Cloudy 59 15 57 13.9 93 93 ENE 8 13 29.54 1001 10 16 0.00 0.00
4:53 pm 16:53 Cloudy 59 15 57 13.9 93 93 E 9 15 29.53 1000 10 16 0.00 0.00
5:53 pm 17:53 Cloudy 58 14.4 56 13.3 93 93 ENE 9 15 29.54 1000 10 16 0.00 0.00
6:53 pm 18:53 Cloudy 57 13.9 55 12.8 93 93 ENE 8 13 29.54 1000 10 16 0.01 0.25
7:30 pm 19:30 Cloudy 57 13.9 56 13.3 96 96 ENE 7 11 29.55 1001 10 16 0.00 0.00
7:53 pm 19:53 Cloudy 57 13.9 56 13.3 96 96 NE 5 7 29.54 1000 10 16 0.00 0.00
8:53 pm 20:53 Cloudy 57 13.9 56 13.3 96 96 ESE 3 6 29.54 1000 10 16 0.00 0.00
9:25 pm 21:25 Cloudy with Mist and Fog 56 13.3 55 12.8 97 97 ESE 3 6 29.55 1001 2 3 0.00 0.00
9:53 pm 21:53 Cloudy with Mist and Fog 56 13.3 56 13.3 100 100 SE 3 6 29.54 1000 2 3 0.00 0.00
10:00 pm 22:00 Cloudy with Mist and Fog 56 13.3 56 13.3 100 100 Calm 29.54 1000 3 5 0.00 0.00
10:48 pm 22:48 Cloudy with Mist and Fog 55 13 55 13 100 100 Calm 29.55 1001 5 8 0.00 0.00
10:53 pm 22:53 Cloudy with Mist and Fog 56 13.3 56 13.3 100 100 Calm 29.54 1000 6 10 0.00 0.00
11:53 pm 23:53 Cloudy 57 13.9 55 12.8 93 93 Calm 29.52 1000 9 14 0.00 0.00

Powered by AerisWeather